When you browse on this site, cookies collect data to enhance your experience and personalize the content and advertising you see.
Visit our Privacy Policy to learn more. By continuing to use the site, you agree to this use of cookies and data.
  • In Österreich
  • Länderverzeichnis
  • Für 7 Tage
  • Wassertemperatur
  • Wetterkarte
  • News
  • Widgets
  • user-avatar
    Anmelden

    Stündliche Wetter Ilincy

    Heute, 5 Juni, Freitag

    Zeit Temperatur Niederschläge Wind Luftdruck Luftfeuchtigkeit
    00:00 +12°C° 0.1 mm 4 m/S 732 mmHg 91%
    01:00 +12°C° 0.1 mm 4 m/S 732 mmHg 91%
    02:00 +12°C° 0.1 mm 4 m/S 733 mmHg 92%
    03:00 +12°C° 0 mm 4 m/S 732 mmHg 92%
    04:00 +12°C° 0 mm 4 m/S 732 mmHg 93%
    05:00 +13°C° 0 mm 4 m/S 732 mmHg 93%
    06:00 +14°C° 0 mm 5 m/S 733 mmHg 92%
    07:00 +14°C° 0 mm 5 m/S 733 mmHg 91%
    08:00 +15°C° 0 mm 5 m/S 733 mmHg 90%
    09:00 +17°C° 0.1 mm 5 m/S 734 mmHg 86%
    10:00 +19°C° 0.1 mm 4 m/S 734 mmHg 82%
    11:00 +20°C° 0.1 mm 4 m/S 734 mmHg 78%
    12:00 +21°C° 0.6 mm 4 m/S 734 mmHg 74%
    13:00 +22°C° 0.6 mm 5 m/S 734 mmHg 71%
    14:00 +23°C° 0.6 mm 5 m/S 734 mmHg 67%
    15:00 +23°C° 0.4 mm 4 m/S 734 mmHg 69%
    16:00 +23°C° 0.4 mm 4 m/S 734 mmHg 72%
    17:00 +24°C° 0.4 mm 3 m/S 734 mmHg 74%
    18:00 +22°C° 0 mm 3 m/S 734 mmHg 78%
    19:00 +20°C° 0 mm 3 m/S 734 mmHg 82%
    20:00 +19°C° 0 mm 3 m/S 734 mmHg 86%
    21:00 +18°C° 0 mm 4 m/S 734 mmHg 88%
    22:00 +18°C° 0 mm 4 m/S 735 mmHg 89%
    23:00 +16°C° 0 mm 5 m/S 735 mmHg 91%

    Morgen, 6 Juni, Samstag

    Zeit Temperatur Niederschläge Wind Luftdruck Luftfeuchtigkeit
    00:00 +16°C° 0 mm 5 m/S 735 mmHg 91%
    01:00 +15°C° 0 mm 5 m/S 735 mmHg 92%
    02:00 +15°C° 0 mm 5 m/S 735 mmHg 93%
    03:00 +15°C° 0 mm 4 m/S 736 mmHg 94%
    04:00 +15°C° 0 mm 4 m/S 736 mmHg 94%
    05:00 +15°C° 0 mm 4 m/S 736 mmHg 94%
    06:00 +17°C° 0 mm 4 m/S 736 mmHg 91%
    07:00 +19°C° 0 mm 4 m/S 737 mmHg 88%
    08:00 +21°C° 0 mm 4 m/S 737 mmHg 85%
    09:00 +22°C° 0.5 mm 4 m/S 738 mmHg 82%
    10:00 +23°C° 0.5 mm 4 m/S 738 mmHg 79%
    11:00 +25°C° 0.5 mm 5 m/S 738 mmHg 76%
    12:00 +26°C° 0.3 mm 4 m/S 738 mmHg 72%
    13:00 +26°C° 0.3 mm 3 m/S 738 mmHg 69%
    14:00 +27°C° 0.3 mm 3 m/S 739 mmHg 65%
    15:00 +27°C° 0.1 mm 3 m/S 739 mmHg 67%
    16:00 +27°C° 0.1 mm 3 m/S 739 mmHg 68%
    17:00 +27°C° 0.1 mm 2 m/S 739 mmHg 70%
    18:00 +25°C° 0.2 mm 2 m/S 739 mmHg 75%
    19:00 +24°C° 0.2 mm 2 m/S 739 mmHg 81%
    20:00 +21°C° 0.2 mm 2 m/S 739 mmHg 87%
    21:00 +20°C° 0 mm 3 m/S 739 mmHg 87%
    22:00 +19°C° 0 mm 3 m/S 739 mmHg 87%
    23:00 +18°C° 0 mm 3 m/S 739 mmHg 87%

    übermorgen, 7 Juni, Sonntag

    Zeit Temperatur Niederschläge Wind Luftdruck Luftfeuchtigkeit
    00:00 +17°C° 0 mm 3 m/S 739 mmHg 87%
    01:00 +16°C° 0 mm 3 m/S 739 mmHg 88%
    02:00 +14°C° 0 mm 3 m/S 739 mmHg 88%
    03:00 +14°C° 0 mm 3 m/S 739 mmHg 88%
    04:00 +14°C° 0 mm 4 m/S 739 mmHg 89%
    05:00 +14°C° 0 mm 4 m/S 739 mmHg 89%
    06:00 +15°C° 0 mm 4 m/S 739 mmHg 85%
    07:00 +17°C° 0 mm 5 m/S 740 mmHg 81%
    08:00 +20°C° 0 mm 5 m/S 740 mmHg 76%
    09:00 +21°C° 0 mm 5 m/S 740 mmHg 72%
    10:00 +23°C° 0 mm 5 m/S 740 mmHg 68%
    11:00 +25°C° 0 mm 5 m/S 741 mmHg 64%
    12:00 +26°C° 0 mm 5 m/S 740 mmHg 63%
    13:00 +26°C° 0 mm 5 m/S 740 mmHg 62%
    14:00 +27°C° 0 mm 5 m/S 740 mmHg 61%
    15:00 +26°C° 0 mm 5 m/S 740 mmHg 64%
    16:00 +26°C° 0 mm 4 m/S 740 mmHg 67%
    17:00 +26°C° 0 mm 4 m/S 740 mmHg 70%
    18:00 +23°C° 0 mm 4 m/S 739 mmHg 76%
    19:00 +21°C° 0 mm 3 m/S 739 mmHg 81%
    20:00 +20°C° 0 mm 3 m/S 739 mmHg 87%
    21:00 +19°C° 0 mm 3 m/S 739 mmHg 88%
    22:00 +19°C° 0 mm 3 m/S 739 mmHg 90%
    23:00 +18°C° 0 mm 3 m/S 739 mmHg 91%

    8 Juni, Montag

    Zeit Temperatur Niederschläge Wind Luftdruck Luftfeuchtigkeit
    00:00 +18°C° 0 mm 3 m/S 739 mmHg 90%
    01:00 +17°C° 0 mm 3 m/S 739 mmHg 89%
    02:00 +16°C° 0 mm 3 m/S 739 mmHg 88%
    03:00 +16°C° 0 mm 3 m/S 739 mmHg 88%
    04:00 +16°C° 0 mm 3 m/S 739 mmHg 88%
    05:00 +16°C° 0 mm 3 m/S 739 mmHg 89%
    06:00 +17°C° 0 mm 4 m/S 739 mmHg 85%
    07:00 +19°C° 0 mm 5 m/S 739 mmHg 82%
    08:00 +21°C° 0 mm 5 m/S 739 mmHg 79%
    09:00 +22°C° 0 mm 5 m/S 739 mmHg 75%
    10:00 +24°C° 0 mm 6 m/S 739 mmHg 72%
    11:00 +26°C° 0 mm 6 m/S 739 mmHg 68%
    12:00 +26°C° 0 mm 6 m/S 739 mmHg 66%
    13:00 +27°C° 0 mm 5 m/S 739 mmHg 65%
    14:00 +27°C° 0 mm 5 m/S 739 mmHg 63%
    15:00 +27°C° 0 mm 5 m/S 739 mmHg 66%
    16:00 +27°C° 0 mm 4 m/S 738 mmHg 69%
    17:00 +27°C° 0 mm 4 m/S 738 mmHg 72%
    18:00 +26°C° 0 mm 4 m/S 738 mmHg 74%
    19:00 +23°C° 0 mm 4 m/S 738 mmHg 76%
    20:00 +22°C° 0 mm 4 m/S 738 mmHg 78%
    21:00 +21°C° 0 mm 4 m/S 738 mmHg 78%
    22:00 +20°C° 0 mm 4 m/S 738 mmHg 78%
    23:00 +20°C° 0 mm 4 m/S 738 mmHg 78%

    9 Juni, Dienstag

    Zeit Temperatur Niederschläge Wind Luftdruck Luftfeuchtigkeit
    00:00 +19°C° 0 mm 4 m/S 738 mmHg 80%
    01:00 +18°C° 0 mm 3 m/S 738 mmHg 81%
    02:00 +17°C° 0 mm 3 m/S 738 mmHg 82%
    03:00 +17°C° 0 mm 3 m/S 738 mmHg 84%
    04:00 +17°C° 0 mm 3 m/S 738 mmHg 85%
    05:00 +16°C° 0 mm 3 m/S 738 mmHg 87%
    06:00 +18°C° 0 mm 4 m/S 738 mmHg 84%
    07:00 +20°C° 0 mm 4 m/S 738 mmHg 81%
    08:00 +21°C° 0 mm 4 m/S 738 mmHg 79%
    09:00 +23°C° 0 mm 4 m/S 739 mmHg 76%
    10:00 +25°C° 0 mm 5 m/S 739 mmHg 74%
    11:00 +26°C° 0 mm 5 m/S 739 mmHg 71%
    12:00 +27°C° 0 mm 5 m/S 739 mmHg 70%
    13:00 +27°C° 0 mm 5 m/S 739 mmHg 68%
    14:00 +28°C° 0 mm 4 m/S 738 mmHg 66%
    15:00 +28°C° 0 mm 4 m/S 738 mmHg 68%
    16:00 +28°C° 0 mm 3 m/S 738 mmHg 70%
    17:00 +28°C° 0 mm 3 m/S 738 mmHg 71%
    18:00 +27°C° 0.2 mm 3 m/S 738 mmHg 75%
    19:00 +25°C° 0.2 mm 2 m/S 738 mmHg 78%
    20:00 +24°C° 0.2 mm 2 m/S 738 mmHg 81%
    21:00 +23°C° 0 mm 2 m/S 738 mmHg 82%
    22:00 +21°C° 0 mm 3 m/S 739 mmHg 83%
    23:00 +20°C° 0 mm 3 m/S 739 mmHg 84%

    10 Juni, Mittwoch

    Zeit Temperatur Niederschläge Wind Luftdruck Luftfeuchtigkeit
    00:00 +19°C° 0 mm 3 m/S 739 mmHg 84%
    01:00 +19°C° 0 mm 3 m/S 739 mmHg 85%
    02:00 +18°C° 0 mm 3 m/S 739 mmHg 85%
    03:00 +18°C° 0 mm 3 m/S 739 mmHg 86%
    04:00 +18°C° 0 mm 3 m/S 739 mmHg 87%
    05:00 +18°C° 0 mm 2 m/S 739 mmHg 89%
    06:00 +20°C° 0 mm 3 m/S 739 mmHg 84%
    07:00 +22°C° 0 mm 3 m/S 739 mmHg 79%
    08:00 +24°C° 0 mm 3 m/S 740 mmHg 75%
    09:00 +26°C° 0 mm 3 m/S 740 mmHg 70%
    10:00 +27°C° 0 mm 3 m/S 740 mmHg 66%
    11:00 +28°C° 0 mm 4 m/S 740 mmHg 61%
    12:00 +29°C° 0 mm 4 m/S 740 mmHg 61%
    13:00 +29°C° 0 mm 4 m/S 740 mmHg 60%
    14:00 +29°C° 0 mm 4 m/S 740 mmHg 59%
    15:00 +29°C° 0 mm 3 m/S 740 mmHg 62%
    16:00 +29°C° 0 mm 3 m/S 739 mmHg 65%
    17:00 +29°C° 0 mm 3 m/S 739 mmHg 67%
    18:00 +27°C° 0 mm 3 m/S 739 mmHg 72%
    19:00 +26°C° 0 mm 3 m/S 739 mmHg 76%
    20:00 +24°C° 0 mm 3 m/S 739 mmHg 81%
    21:00 +22°C° 0 mm 3 m/S 739 mmHg 83%
    22:00 +21°C° 0 mm 3 m/S 739 mmHg 85%
    23:00 +20°C° 0 mm 3 m/S 740 mmHg 88%
    Mehr zeigen